This demonstration page uses our WeatherBlox Daily Observations layout. Learn more.

Left ArrowRight Arrow

Hourly Observations for June 7, 2020

Temp ( °F °C ) Dew Point ( °F °C ) Humidity (%) Winds ( mph kmh ) Pressure ( in mb ) Visibility ( mi km ) Precip ( " mm )
12:18 am 00:18 Cloudy with Light Rain 53 11.7 51 10.6 93 93 WNW 21 33 29.37 995 9 14 0.02 0.51
12:37 am 00:37 Cloudy with Light Rain 53 11.7 52 11.1 96 96 WNW 22 35 29.38 995 10 16 0.03 0.76
12:53 am 00:53 Cloudy with Light Rain 54 12.2 53 11.7 97 97 WNW 18 30 29.36 994 10 16 0.04 1.02
1:25 am 01:25 Cloudy with Light Rain 54 12.2 52 11.1 93 93 WNW 20 31 29.39 995 10 16 0.02 0.51
1:48 am 01:48 Cloudy with Light Rain 54 12 52 11 94 94 SW 14 22 29.39 995 10 16 0.03 0.76
1:53 am 01:53 Cloudy with Light Rain 53 11.7 52 11.1 96 96 SW 14 22 29.38 995 10 16 0.03 0.76
2:13 am 02:13 Cloudy with Light Rain 53 11.7 51 10.6 93 93 W 12 19 29.38 995 10 16 0.01 0.25
2:26 am 02:26 Cloudy with Light Rain 53 11.7 51 10.6 93 93 SW 9 15 29.37 995 10 16 0.01 0.25
2:53 am 02:53 Cloudy 53 11.7 51 10.6 93 93 SW 13 20 29.36 994 10 16 0.01 0.25
3:14 am 03:14 Cloudy 54 12.2 52 11.1 93 93 SW 17 28 29.37 994 10 16 N/A
3:53 am 03:53 Cloudy 54 12.2 50 10 87 87 WSW 16 26 29.35 994 10 16 N/A
4:53 am 04:53 Cloudy 54 12.2 50 10 87 87 SW 21 33 29.37 995 10 16 N/A
5:17 am 05:17 Cloudy 53 11.7 51 10.6 93 93 SW 16 26 29.38 995 10 16 N/A
5:53 am 05:53 Cloudy 53 11.7 50 10 89 89 SW 15 24 29.37 995 10 16 N/A
6:53 am 06:53 Cloudy 54 12.2 49 9.4 83 83 SW 14 22 29.39 995 10 16 N/A
7:53 am 07:53 Cloudy 54 12.2 49 9.4 83 83 SW 14 22 29.41 996 10 16 N/A
8:53 am 08:53 Cloudy 57 13.9 48 8.9 72 72 W 18 30 29.42 996 10 16 N/A
9:29 am 09:29 Cloudy 56 13.3 48 8.9 75 75 W 22 35 29.43 996 10 16 N/A
9:53 am 09:53 Cloudy 57 13.9 49 9.4 74 74 W 20 31 29.45 997 10 16 N/A
10:09 am 10:09 Cloudy with Light Rain 57 13.9 49 9.4 74 74 W 22 35 29.43 997 10 16 0.00 0.00
10:38 am 10:38 Cloudy 58 14.4 49 9.4 72 72 W 20 31 29.44 997 10 16 0.00 0.00
10:53 am 10:53 Cloudy 58 14.4 48 8.9 70 70 W 23 37 29.47 998 10 16 0.00 0.00
11:01 am 11:01 Cloudy 58 14.4 48 8.9 70 70 W 24 39 29.45 997 10 16 N/A
11:53 am 11:53 Cloudy 59 15 47 8.3 64 64 W 18 30 29.49 999 10 16 N/A
12:53 pm 12:53 Cloudy 59 15 46 7.8 62 62 W 20 31 29.52 1000 10 16 N/A
1:53 pm 13:53 Cloudy 64 17.8 46 7.8 52 52 W 17 28 29.52 1000 10 16 N/A
2:53 pm 14:53 Mostly Sunny 66 18.9 46 7.8 49 49 W 20 31 29.53 1000 10 16 N/A
3:53 pm 15:53 Mostly Cloudy 63 17.2 45 7.2 52 52 NW 21 33 29.53 1000 10 16 N/A
4:53 pm 16:53 Mostly Cloudy 65 18.3 46 7.8 51 51 NW 17 28 29.56 1001 10 16 N/A
5:53 pm 17:53 Sunny 64 17.8 44 6.7 48 48 NNW 13 20 29.57 1001 10 16 N/A
6:53 pm 18:53 Partly Cloudy 63 17.2 43 6.1 48 48 NNW 16 26 29.60 1002 10 16 N/A
7:53 pm 19:53 Sunny 59 15 44 6.7 58 58 NNW 10 17 29.61 1003 10 16 N/A
8:53 pm 20:53 Mostly Sunny 56 13.3 43 6.1 62 62 NNW 9 15 29.62 1003 10 16 N/A
9:53 pm 21:53 Clear 52 11.1 44 6.7 75 75 NW 6 9 29.67 1005 10 16 N/A
10:53 pm 22:53 Mostly Clear 52 11.1 45 7.2 77 77 N N/A 29.68 1005 10 16 N/A
11:53 pm 23:53 Cloudy 51 10.6 46 7.8 83 83 W 5 7 29.70 1006 10 16 N/A

Powered by AerisWeather